| time (UTC) | temp F | wind direction | speed MPH | gust MPH | rain 1hr in | rain 24hr in | rain mn in | humidity % | barometer mb |
| 20260906103004 | 57 | 269 | 0.0 | 0.0 | 0.00 | 0.00 | 0.00 | 73 | 1005.0 |
| 20260906102503 | 57 | 269 | 0.0 | 0.0 | 0.00 | 0.00 | 0.00 | 72 | 1005.0 |
| 20260906102002 | 57 | 269 | 0.0 | 0.0 | 0.00 | 0.00 | 0.00 | 72 | 1005.0 |
| 20260906101501 | 58 | 269 | 0.0 | 0.0 | 0.00 | 0.00 | 0.00 | 72 | 1005.0 |
| 20260906101001 | 58 | 269 | 0.0 | 0.0 | 0.00 | 0.00 | 0.00 | 71 | 1005.0 |
| 20260906100600 | 58 | 269 | 0.0 | 0.0 | 0.00 | 0.00 | 0.00 | 70 | 1005.0 |
| 20260906100059 | 58 | 269 | 0.0 | 0.0 | 0.00 | 0.00 | 0.00 | 70 | 1004.8 |
| 20260906095558 | 59 | 269 | 0.0 | 0.0 | 0.00 | 0.00 | 0.00 | 69 | 1004.6 |
| 20260906095057 | 59 | 269 | 0.0 | 0.0 | 0.00 | 0.00 | 0.00 | 69 | 1004.6 |
| 20260906094556 | 59 | 269 | 0.0 | 0.0 | 0.00 | 0.00 | 0.00 | 68 | 1004.7 |
| 20260906094054 | 59 | 269 | 0.0 | 0.0 | 0.00 | 0.00 | 0.00 | 67 | 1004.7 |
| 20260906093554 | 60 | 269 | 0.0 | 0.0 | 0.00 | 0.00 | 0.00 | 67 | 1004.6 |
| 20260906093053 | 60 | 269 | 0.0 | 0.0 | 0.00 | 0.00 | 0.00 | 66 | 1004.5 |
| 20260906092552 | 60 | 269 | 0.0 | 0.0 | 0.00 | 0.00 | 0.00 | 66 | 1004.7 |
| 20260906092051 | 60 | 269 | 0.0 | 0.0 | 0.00 | 0.00 | 0.00 | 66 | 1004.8 |
| 20260906091551 | 61 | 269 | 0.0 | 0.0 | 0.00 | 0.00 | 0.00 | 66 | 1004.6 |
| 20260906091049 | 61 | 269 | 0.0 | 0.0 | 0.00 | 0.00 | 0.00 | 64 | 1004.6 |
| 20260906090548 | 61 | 269 | 0.0 | 0.0 | 0.00 | 0.00 | 0.00 | 64 | 1004.5 |
| 20260906090047 | 62 | 269 | 0.0 | 0.0 | 0.00 | 0.00 | 0.00 | 63 | 1004.4 |
| 20260906085548 | 62 | 269 | 0.0 | 0.0 | 0.00 | 0.00 | 0.00 | 63 | 1004.3 |
| 20260906085045 | 62 | 269 | 0.0 | 0.0 | 0.00 | 0.00 | 0.00 | 63 | 1004.4 |
| 20260906084545 | 62 | 269 | 0.0 | 0.0 | 0.00 | 0.00 | 0.00 | 63 | 1004.5 |
| 20260906084044 | 63 | 269 | 0.0 | 0.0 | 0.00 | 0.00 | 0.00 | 63 | 1004.5 |
| 20260906083543 | 63 | 269 | 0.0 | 0.0 | 0.00 | 0.00 | 0.00 | 62 | 1004.4 |
| 20260906083043 | 63 | 269 | 0.0 | 0.0 | 0.00 | 0.00 | 0.00 | 62 | 1004.4 |
| 20260906082542 | 63 | 269 | 0.0 | 0.0 | 0.00 | 0.00 | 0.00 | 62 | 1004.4 |
| 20260906082042 | 63 | 269 | 0.0 | 0.0 | 0.00 | 0.00 | 0.00 | 62 | 1004.6 |
| 20260906081543 | 63 | 269 | 0.0 | 0.0 | 0.00 | 0.00 | 0.00 | 62 | 1004.6 |
| 20260906081045 | 63 | 269 | 0.0 | 0.0 | 0.00 | 0.00 | 0.00 | 62 | 1004.6 |
| 20260906080543 | 63 | 269 | 0.0 | 0.0 | 0.00 | 0.00 | 0.00 | 63 | 1004.6 |
| 20260906080039 | 64 | 269 | 0.0 | 0.0 | 0.00 | 0.00 | 0.00 | 62 | 1004.5 |
| 20260906075538 | 64 | 269 | 0.0 | 0.0 | 0.00 | 0.00 | 0.00 | 61 | 1004.6 |
| 20260906075037 | 64 | 269 | 0.0 | 0.0 | 0.00 | 0.00 | 0.00 | 61 | 1004.5 |
| 20260906074540 | 65 | 269 | 0.0 | 0.0 | 0.00 | 0.00 | 0.00 | 60 | 1004.5 |
| 20260906074033 | 65 | 269 | 0.0 | 0.0 | 0.00 | 0.00 | 0.00 | 59 | 1004.5 |
| 20260906073536 | 65 | 269 | 0.0 | 0.0 | 0.00 | 0.00 | 0.00 | 59 | 1004.4 |
| 20260906073033 | 66 | 269 | 0.0 | 0.0 | 0.00 | 0.00 | 0.00 | 59 | 1004.4 |
| 20260906072530 | 66 | 269 | 0.0 | 0.0 | 0.00 | 0.00 | 0.00 | 58 | 1004.3 |
| 20260906072029 | 66 | 269 | 0.0 | 0.0 | 0.00 | 0.00 | 0.00 | 57 | 1004.2 |
| 20260906071531 | 67 | 269 | 0.0 | 0.0 | 0.00 | 0.00 | 0.00 | 57 | 1004.2 |
| 20260906071027 | 67 | 269 | 0.0 | 0.0 | 0.00 | 0.00 | 0.00 | 56 | 1004.2 |
| 20260906070529 | 68 | 269 | 0.0 | 0.0 | 0.00 | 0.00 | 0.00 | 55 | 1004.1 |
| 20260906070025 | 68 | 269 | 0.0 | 0.0 | 0.00 | 0.00 | 0.00 | 54 | 1004.1 |
| 20260906065525 | 68 | 269 | 0.0 | 0.0 | 0.00 | 0.00 | 0.00 | 53 | 1004.1 |
| 20260906065023 | 68 | 269 | 0.0 | 0.0 | 0.00 | 0.00 | 0.00 | 53 | 1004.0 |
| 20260906064527 | 68 | 269 | 0.0 | 0.0 | 0.00 | 0.00 | 0.00 | 52 | 1004.1 |
| 20260906064024 | 69 | 269 | 0.0 | 0.0 | 0.00 | 0.00 | 0.00 | 52 | 1004.0 |
| 20260906063622 | 69 | 269 | 0.0 | 0.0 | 0.00 | 0.00 | 0.00 | 52 | 1004.1 |
| 20260906063021 | 69 | 269 | 0.0 | 0.0 | 0.00 | 0.00 | 0.00 | 52 | 1004.1 |
| 20260906062520 | 69 | 269 | 0.0 | 0.0 | 0.00 | 0.00 | 0.00 | 52 | 1004.1 |
| 20260906062020 | 69 | 269 | 0.0 | 0.0 | 0.00 | 0.00 | 0.00 | 51 | 1004.0 |
| 20260906061619 | 69 | 269 | 0.0 | 0.0 | 0.00 | 0.00 | 0.00 | 51 | 1004.0 |
| 20260906061019 | 69 | 269 | 0.0 | 0.0 | 0.00 | 0.00 | 0.00 | 50 | 1004.0 |
| 20260906060518 | 69 | 269 | 0.0 | 0.0 | 0.00 | 0.00 | 0.00 | 52 | 1004.1 |
| 20260906060017 | 69 | 269 | 0.0 | 7.0 | 0.00 | 0.00 | 0.00 | 52 | 1004.3 |
| 20260906055517 | 68 | 269 | 0.0 | 9.0 | 0.00 | 0.00 | 0.00 | 52 | 1004.4 |
| 20260906055020 | 68 | 269 | 0.0 | 15.0 | 0.00 | 0.00 | 0.00 | 50 | 1004.5 |
| 20260906054517 | 68 | 263 | 4.0 | 15.0 | 0.00 | 0.00 | 0.00 | 50 | 1004.6 |
| 20260906054016 | 68 | 250 | 0.0 | 10.0 | 0.00 | 0.00 | 0.00 | 51 | 1004.7 |
| 20260906053520 | 69 | 135 | 0.0 | 0.0 | 0.00 | 0.00 | 0.00 | 50 | 1004.7 |
| 20260906053017 | 69 | 135 | 0.0 | 0.0 | 0.00 | 0.00 | 0.00 | 49 | 1004.6 |
| 20260906052517 | 69 | 135 | 0.0 | 0.0 | 0.00 | 0.00 | 0.00 | 50 | 1004.7 |
| 20260906052016 | 69 | 135 | 0.0 | 0.0 | 0.00 | 0.00 | 0.00 | 49 | 1004.6 |
| 20260906051517 | 69 | 135 | 0.0 | 0.0 | 0.00 | 0.00 | 0.00 | 48 | 1004.7 |
| 20260906051016 | 69 | 135 | 0.0 | 0.0 | 0.00 | 0.00 | 0.00 | 47 | 1004.6 |
| 20260906050516 | 69 | 135 | 0.0 | 0.0 | 0.00 | 0.00 | 0.00 | 47 | 1004.6 |
| 20260906050017 | 69 | 135 | 0.0 | 0.0 | 0.00 | 0.00 | 0.00 | 47 | 1004.7 |
| 20260906045519 | 69 | 135 | 0.0 | 0.0 | 0.00 | 0.00 | 0.00 | 46 | 1004.8 |
| 20260906045019 | 70 | 135 | 0.0 | 0.0 | 0.00 | 0.00 | 0.00 | 46 | 1004.8 |
| 20260906044514 | 70 | 135 | 0.0 | 0.0 | 0.00 | 0.00 | 0.00 | 45 | 1004.9 |
| 20260906044019 | 70 | 135 | 0.0 | 0.0 | 0.00 | 0.00 | 0.00 | 44 | 1004.9 |
| 20260906043516 | 70 | 135 | 0.0 | 0.0 | 0.00 | 0.00 | 0.00 | 44 | 1005.0 |
| 20260906043014 | 71 | 135 | 0.0 | 0.0 | 0.00 | 0.00 | 0.00 | 44 | 1005.0 |
| 20260906042515 | 71 | 135 | 0.0 | 0.0 | 0.00 | 0.00 | 0.00 | 44 | 1004.9 |
| 20260906042013 | 71 | 135 | 0.0 | 0.0 | 0.00 | 0.00 | 0.00 | 45 | 1004.9 |
| 20260906041520 | 72 | 135 | 0.0 | 0.0 | 0.00 | 0.00 | 0.00 | 43 | 1004.8 |
| 20260906041016 | 72 | 135 | 0.0 | 0.0 | 0.00 | 0.00 | 0.00 | 43 | 1004.7 |
| 20260906040513 | 72 | 135 | 0.0 | 0.0 | 0.00 | 0.00 | 0.00 | 42 | 1004.9 |
| 20260906040024 | 72 | 135 | 0.0 | 0.0 | 0.00 | 0.00 | 0.00 | 42 | 1004.9 |
| 20260906035515 | 73 | 135 | 0.0 | 0.0 | 0.00 | 0.00 | 0.00 | 41 | 1005.0 |
| 20260906035012 | 73 | 135 | 0.0 | 0.0 | 0.00 | 0.00 | 0.00 | 40 | 1005.1 |
| 20260906034513 | 73 | 135 | 0.0 | 0.0 | 0.00 | 0.00 | 0.00 | 39 | 1005.0 |
| 20260906034011 | 72 | 135 | 0.0 | 0.0 | 0.00 | 0.00 | 0.00 | 39 | 1004.9 |
| 20260906033514 | 72 | 135 | 0.0 | 11.0 | 0.00 | 0.00 | 0.00 | 39 | 1004.8 |
| 20260906033010 | 72 | 135 | 3.0 | 11.0 | 0.00 | 0.00 | 0.00 | 39 | 1004.7 |
| 20260906032517 | 71 | 144 | 5.0 | 17.0 | 0.00 | 0.00 | 0.00 | 41 | 1004.7 |
| 20260906032021 | 70 | 148 | 6.0 | 17.0 | 0.00 | 0.00 | 0.00 | 44 | 1004.6 |
| 20260906031509 | 70 | 193 | 0.0 | 0.0 | 0.00 | 0.00 | 0.00 | 43 | 1004.0 |
| 20260906031008 | 70 | 193 | 0.0 | 0.0 | 0.00 | 0.00 | 0.00 | 42 | 1003.6 |
| 20260906030510 | 71 | 193 | 0.0 | 0.0 | 0.00 | 0.00 | 0.00 | 43 | 1003.4 |
| 20260906030008 | 71 | 193 | 0.0 | 0.0 | 0.00 | 0.00 | 0.00 | 42 | 1003.4 |
| 20260906025512 | 71 | 193 | 0.0 | 0.0 | 0.00 | 0.00 | 0.00 | 41 | 1003.3 |
| 20260906025009 | 71 | 193 | 0.0 | 0.0 | 0.00 | 0.00 | 0.00 | 41 | 1003.2 |
| 20260906024507 | 72 | 193 | 0.0 | 0.0 | 0.00 | 0.00 | 0.00 | 40 | 1003.0 |
| 20260906024006 | 72 | 193 | 0.0 | 0.0 | 0.00 | 0.00 | 0.00 | 40 | 1003.0 |
| 20260906023508 | 73 | 193 | 0.0 | 0.0 | 0.00 | 0.00 | 0.00 | 40 | 1003.0 |
| 20260906023006 | 74 | 193 | 0.0 | 0.0 | 0.00 | 0.00 | 0.00 | 39 | 1002.8 |
| 20260906022506 | 75 | 193 | 0.0 | 0.0 | 0.00 | 0.00 | 0.00 | 39 | 1002.7 |
| 20260906022007 | 75 | 193 | 0.0 | 0.0 | 0.00 | 0.00 | 0.00 | 37 | 1002.7 |
| 20260906021507 | 76 | 193 | 0.0 | 0.0 | 0.00 | 0.00 | 0.00 | 37 | 1002.6 |
| 20260906021006 | 77 | 193 | 0.0 | 0.0 | 0.00 | 0.00 | 0.00 | 35 | 1002.5 |
| 20260906020506 | 77 | 193 | 0.0 | 0.0 | 0.00 | 0.00 | 0.00 | 35 | 1002.5 |
| 20260906020006 | 78 | 193 | 0.0 | 0.0 | 0.00 | 0.00 | 0.00 | 36 | 1002.5 |
| 20260906015506 | 79 | 193 | 0.0 | 0.0 | 0.00 | 0.00 | 0.00 | 34 | 1002.5 |
| 20260906015006 | 80 | 193 | 0.0 | 0.0 | 0.00 | 0.00 | 0.00 | 33 | 1002.5 |
| 20260906014510 | 80 | 193 | 0.0 | 0.0 | 0.00 | 0.00 | 0.00 | 31 | 1002.4 |
| 20260906014005 | 81 | 193 | 0.0 | 0.0 | 0.00 | 0.00 | 0.00 | 32 | 1002.4 |
| 20260906013505 | 81 | 193 | 0.0 | 0.0 | 0.00 | 0.00 | 0.00 | 32 | 1002.3 |
| 20260906013006 | 82 | 193 | 0.0 | 0.0 | 0.00 | 0.00 | 0.00 | 30 | 1002.3 |
| 20260906012505 | 82 | 193 | 0.0 | 0.0 | 0.00 | 0.00 | 0.00 | 29 | 1002.2 |
| 20260906012008 | 82 | 193 | 0.0 | 0.0 | 0.00 | 0.00 | 0.00 | 29 | 1002.2 |
| 20260906011505 | 82 | 193 | 0.0 | 1.0 | 0.00 | 0.00 | 0.00 | 29 | 1002.3 |
| 20260906011104 | 82 | 193 | 0.0 | 1.0 | 0.00 | 0.00 | 0.00 | 29 | 1002.3 |
| 20260906010504 | 82 | 193 | 0.0 | 0.0 | 0.00 | 0.00 | 0.00 | 29 | 1002.3 |
| 20260906010004 | 83 | 193 | 0.0 | 0.0 | 0.00 | 0.00 | 0.00 | 29 | 1002.3 |
| 20260906005504 | 83 | 193 | 0.0 | 0.0 | 0.00 | 0.00 | 0.00 | 28 | 1002.3 |
| 20260906005004 | 83 | 193 | 0.0 | 0.0 | 0.00 | 0.00 | 0.00 | 28 | 1002.4 |
| 20260906004504 | 83 | 193 | 0.0 | 0.0 | 0.00 | 0.00 | 0.00 | 28 | 1002.4 |
| 20260906004003 | 83 | 193 | 0.0 | 0.0 | 0.00 | 0.00 | 0.00 | 28 | 1002.4 |
| 20260906003504 | 83 | 193 | 0.0 | 0.0 | 0.00 | 0.00 | 0.00 | 28 | 1002.3 |
| 20260906003003 | 83 | 193 | 0.0 | 0.0 | 0.00 | 0.00 | 0.00 | 28 | 1002.3 |
| 20260906002503 | 84 | 193 | 0.0 | 1.0 | 0.00 | 0.00 | 0.00 | 28 | 1002.2 |
| 20260906002003 | 84 | 193 | 0.0 | 2.0 | 0.00 | 0.00 | 0.00 | 28 | 1002.4 |
| 20260906001604 | 84 | 183 | 0.0 | 4.0 | 0.00 | 0.00 | 0.00 | 27 | 1002.3 |
| 20260906001002 | 84 | 174 | 0.0 | 8.0 | 0.00 | 0.00 | 0.00 | 27 | 1002.3 |
| 20260906000502 | 84 | 168 | 0.0 | 9.0 | 0.00 | 0.00 | 0.00 | 27 | 1002.2 |
| 20260906000002 | 85 | 166 | 0.0 | 9.0 | 0.00 | 0.00 | 0.00 | 27 | 1002.2 |
| 20260905235501 | 85 | 167 | 0.0 | 13.0 | 0.00 | 0.00 | 0.00 | 26 | 1002.2 |
| 20260905235004 | 85 | 164 | 1.0 | 13.0 | 0.00 | 0.00 | 0.00 | 26 | 1002.2 |
| 20260905234601 | 85 | 137 | 0.0 | 0.0 | 0.00 | 0.00 | 0.00 | 25 | 1002.2 |
| 20260905234104 | 86 | 137 | 0.0 | 0.0 | 0.00 | 0.00 | 0.00 | 23 | 1002.1 |
| 20260905233600 | 86 | 137 | 0.0 | 0.0 | 0.00 | 0.00 | 0.00 | 24 | 1002.1 |
| 20260905233105 | 86 | 137 | 0.0 | 0.0 | 0.00 | 0.00 | 0.00 | 22 | 1002.0 |
| 20260905232559 | 86 | 137 | 0.0 | 0.0 | 0.00 | 0.00 | 0.00 | 23 | 1002.0 |
| 20260905232100 | 86 | 137 | 0.0 | 5.0 | 0.00 | 0.00 | 0.00 | 22 | 1002.0 |
| 20260905231617 | 86 | 137 | 0.0 | 5.0 | 0.00 | 0.00 | 0.00 | 23 | 1002.1 |
| 20260905231100 | 86 | 137 | 0.0 | 0.0 | 0.00 | 0.00 | 0.00 | 22 | 1002.0 |
| 20260905230559 | 86 | 137 | 0.0 | 0.0 | 0.00 | 0.00 | 0.00 | 21 | 1002.0 |
| 20260905230104 | 87 | 137 | 0.0 | 0.0 | 0.00 | 0.00 | 0.00 | 22 | 1002.0 |
| 20260905225559 | 87 | 137 | 0.0 | 0.0 | 0.00 | 0.00 | 0.00 | 23 | 1002.0 |
| 20260905225058 | 87 | 137 | 0.0 | 0.0 | 0.00 | 0.00 | 0.00 | 22 | 1002.1 |
| 20260905224557 | 87 | 137 | 0.0 | 0.0 | 0.00 | 0.00 | 0.00 | 24 | 1002.0 |
| 20260905224058 | 86 | 137 | 0.0 | 0.0 | 0.00 | 0.00 | 0.00 | 23 | 1002.0 |
| 20260905223556 | 86 | 137 | 0.0 | 0.0 | 0.00 | 0.00 | 0.00 | 25 | 1002.1 |
| 20260905223056 | 86 | 137 | 0.0 | 5.0 | 0.00 | 0.00 | 0.00 | 26 | 1002.1 |
| 20260905222557 | 86 | 137 | 0.0 | 5.0 | 0.00 | 0.00 | 0.00 | 23 | 1002.2 |
| 20260905222055 | 86 | 137 | 0.0 | 0.0 | 0.00 | 0.00 | 0.00 | 23 | 1002.2 |
| 20260905221608 | 87 | 137 | 0.0 | 0.0 | 0.00 | 0.00 | 0.00 | 26 | 1002.1 |
| 20260905221055 | 87 | 137 | 0.0 | 0.0 | 0.00 | 0.00 | 0.00 | 23 | 1002.1 |
| 20260905220555 | 87 | 137 | 0.0 | 0.0 | 0.00 | 0.00 | 0.00 | 24 | 1002.2 |
| 20260905220055 | 87 | 137 | 0.0 | 0.0 | 0.00 | 0.00 | 0.00 | 22 | 1002.2 |
| 20260905215556 | 87 | 137 | 0.0 | 0.0 | 0.00 | 0.00 | 0.00 | 22 | 1002.4 |
| 20260905215056 | 88 | 137 | 0.0 | 0.0 | 0.00 | 0.00 | 0.00 | 23 | 1002.4 |
| 20260905214602 | 88 | 137 | 0.0 | 0.0 | 0.00 | 0.00 | 0.00 | 22 | 1002.4 |
| 20260905214054 | 88 | 137 | 0.0 | 0.0 | 0.00 | 0.00 | 0.00 | 22 | 1002.4 |
| 20260905213553 | 88 | 137 | 0.0 | 0.0 | 0.00 | 0.00 | 0.00 | 23 | 1002.5 |
| 20260905213055 | 87 | 137 | 0.0 | 0.0 | 0.00 | 0.00 | 0.00 | 23 | 1002.4 |
| 20260905212556 | 88 | 137 | 0.0 | 0.0 | 0.00 | 0.00 | 0.00 | 22 | 1002.4 |
| 20260905212052 | 87 | 137 | 0.0 | 8.0 | 0.00 | 0.00 | 0.00 | 22 | 1002.6 |
| 20260905211651 | 88 | 137 | 0.0 | 8.0 | 0.00 | 0.00 | 0.00 | 23 | 1002.6 |
| 20260905211051 | 88 | 137 | 0.0 | 9.0 | 0.00 | 0.00 | 0.00 | 22 | 1002.7 |
| 20260905210551 | 88 | 137 | 0.0 | 9.0 | 0.00 | 0.00 | 0.00 | 21 | 1002.7 |
| 20260905210104 | 89 | 137 | 0.0 | 8.0 | 0.00 | 0.00 | 0.00 | 23 | 1002.6 |
| 20260905205550 | 90 | 137 | 1.0 | 8.0 | 0.00 | 0.00 | 0.00 | 21 | 1002.7 |
| 20260905205050 | 90 | 136 | 1.0 | 8.0 | 0.00 | 0.00 | 0.00 | 22 | 1002.7 |
| 20260905204549 | 90 | 136 | 0.0 | 9.0 | 0.00 | 0.00 | 0.00 | 21 | 1002.8 |
| 20260905204048 | 91 | 137 | 0.0 | 9.0 | 0.00 | 0.00 | 0.00 | 22 | 1002.9 |
| 20260905203547 | 91 | 133 | 1.0 | 9.0 | 0.00 | 0.00 | 0.00 | 21 | 1002.9 |
| 20260905203047 | 92 | 129 | 0.0 | 8.0 | 0.00 | 0.00 | 0.00 | 21 | 1003.0 |
| 20260905202547 | 92 | 129 | 0.0 | 5.0 | 0.00 | 0.00 | 0.00 | 22 | 1003.0 |
| 20260905202047 | 92 | 129 | 0.0 | 6.0 | 0.00 | 0.00 | 0.00 | 22 | 1003.2 |
| 20260905201546 | 92 | 129 | 0.0 | 10.0 | 0.00 | 0.00 | 0.00 | 22 | 1003.2 |
| 20260905201046 | 92 | 124 | 1.0 | 10.0 | 0.00 | 0.00 | 0.00 | 22 | 1003.2 |
| 20260905200546 | 91 | 124 | 0.0 | 5.0 | 0.00 | 0.00 | 0.00 | 23 | 1003.3 |
| 20260905200050 | 91 | 291 | 0.0 | 3.0 | 0.00 | 0.00 | 0.00 | 20 | 1003.4 |
| 20260905195548 | 91 | 295 | 0.0 | 11.0 | 0.00 | 0.00 | 0.00 | 22 | 1003.5 |
| 20260905195045 | 91 | 133 | 0.0 | 15.0 | 0.00 | 0.00 | 0.00 | 21 | 1003.5 |
| 20260905194547 | 91 | 157 | 5.0 | 15.0 | 0.00 | 0.00 | 0.00 | 21 | 1003.5 |
| 20260905194045 | 92 | 129 | 1.0 | 8.0 | 0.00 | 0.00 | 0.00 | 21 | 1003.8 |
| 20260905193545 | 92 | 279 | 0.0 | 5.0 | 0.00 | 0.00 | 0.00 | 21 | 1003.6 |
| 20260905193044 | 92 | 266 | 0.0 | 4.0 | 0.00 | 0.00 | 0.00 | 20 | 1003.7 |
| 20260905192541 | 91 | 224 | 0.0 | 9.0 | 0.00 | 0.00 | 0.00 | 22 | 1003.7 |
| 20260905192040 | 91 | 141 | 2.0 | 9.0 | 0.00 | 0.00 | 0.00 | 22 | 1003.7 |
| 20260905191542 | 91 | 340 | 0.0 | 4.0 | 0.00 | 0.00 | 0.00 | 22 | 1003.7 |
| 20260905191039 | 91 | 206 | 0.0 | 4.0 | 0.00 | 0.00 | 0.00 | 22 | 1003.8 |
| 20260905190538 | 90 | 136 | 0.0 | 3.0 | 0.00 | 0.00 | 0.00 | 23 | 1003.8 |
| 20260905190045 | 90 | 249 | 0.0 | 8.0 | 0.00 | 0.00 | 0.00 | 22 | 1003.9 |
| 20260905185540 | 89 | 139 | 0.0 | 8.0 | 0.00 | 0.00 | 0.00 | 23 | 1003.9 |
| 20260905185037 | 89 | 140 | 0.0 | 9.0 | 0.00 | 0.00 | 0.00 | 23 | 1004.0 |
| 20260905184536 | 90 | 141 | 2.0 | 9.0 | 0.00 | 0.00 | 0.00 | 23 | 1004.0 |
| 20260905184037 | 89 | 162 | 0.0 | 8.0 | 0.00 | 0.00 | 0.00 | 23 | 1004.1 |
| 20260905183532 | 89 | 148 | 3.0 | 8.0 | 0.00 | 0.00 | 0.00 | 24 | 1004.1 |
| 20260905183031 | 88 | 243 | 0.0 | 4.0 | 0.00 | 0.00 | 0.00 | 24 | 1004.1 |
| 20260905182629 | 88 | 256 | 0.0 | 9.0 | 0.00 | 0.00 | 0.00 | 24 | 1004.3 |
| 20260905182029 | 87 | 154 | 1.0 | 10.0 | 0.00 | 0.00 | 0.00 | 25 | 1004.3 |
| 20260905181528 | 87 | 155 | 4.0 | 10.0 | 0.00 | 0.00 | 0.00 | 24 | 1004.4 |
| 20260905181029 | 86 | 247 | 0.0 | 8.0 | 0.00 | 0.00 | 0.00 | 25 | 1004.5 |
| 20260905180528 | 86 | 154 | 0.0 | 11.0 | 0.00 | 0.00 | 0.00 | 25 | 1004.5 |
| 20260905180041 | 87 | 154 | 0.0 | 11.0 | 0.00 | 0.00 | 0.00 | 25 | 1004.5 |
| 20260905175529 | 87 | 156 | 0.0 | 9.0 | 0.00 | 0.00 | 0.00 | 25 | 1004.5 |
| 20260905175028 | 87 | 161 | 0.0 | 9.0 | 0.00 | 0.00 | 0.00 | 24 | 1004.6 |
| 20260905174526 | 87 | 166 | 0.0 | 10.0 | 0.00 | 0.00 | 0.00 | 27 | 1004.7 |
| 20260905174025 | 86 | 168 | 1.0 | 10.0 | 0.00 | 0.00 | 0.00 | 25 | 1004.7 |
| 20260905173524 | 86 | 175 | 0.0 | 4.0 | 0.00 | 0.00 | 0.00 | 26 | 1004.7 |
| 20260905173022 | 86 | 177 | 0.0 | 5.0 | 0.00 | 0.00 | 0.00 | 28 | 1004.7 |
| 20260905172522 | 86 | 192 | 0.0 | 5.0 | 0.00 | 0.00 | 0.00 | 26 | 1004.7 |
| 20260905172022 | 87 | 200 | 0.0 | 4.0 | 0.00 | 0.00 | 0.00 | 27 | 1004.6 |
| 20260905171525 | 87 | 212 | 0.0 | 9.0 | 0.00 | 0.00 | 0.00 | 26 | 1004.7 |
| 20260905171021 | 87 | 165 | 0.0 | 12.0 | 0.00 | 0.00 | 0.00 | 27 | 1004.6 |
| 20260905170521 | 87 | 166 | 2.0 | 12.0 | 0.00 | 0.00 | 0.00 | 26 | 1004.6 |
| 20260905170021 | 87 | 173 | 0.0 | 0.0 | 0.00 | 0.00 | 0.00 | 26 | 1004.5 |
| 20260905165522 | 86 | 173 | 0.0 | 0.0 | 0.00 | 0.00 | 0.00 | 27 | 1004.5 |
| 20260905165017 | 86 | 175 | 0.0 | 0.0 | 0.00 | 0.00 | 0.00 | 30 | 1004.5 |
| 20260905164516 | 85 | 175 | 0.0 | 1.0 | 0.00 | 0.00 | 0.00 | 29 | 1004.5 |
| 20260905164013 | 84 | 174 | 0.0 | 1.0 | 0.00 | 0.00 | 0.00 | 29 | 1004.5 |
| 20260905163516 | 84 | 174 | 0.0 | 0.0 | 0.00 | 0.00 | 0.00 | 29 | 1004.6 |
| 20260905163011 | 83 | 174 | 0.0 | 0.0 | 0.00 | 0.00 | 0.00 | 33 | 1004.5 |
| 20260905162510 | 83 | 174 | 0.0 | 0.0 | 0.00 | 0.00 | 0.00 | 32 | 1004.5 |
| 20260905162008 | 82 | 174 | 0.0 | 0.0 | 0.00 | 0.00 | 0.00 | 31 | 1004.4 |
| 20260905161516 | 82 | 175 | 0.0 | 0.0 | 0.00 | 0.00 | 0.00 | 33 | 1004.4 |
| 20260905161006 | 82 | 175 | 0.0 | 0.0 | 0.00 | 0.00 | 0.00 | 34 | 1004.4 |
| 20260905160504 | 81 | 174 | 0.0 | 0.0 | 0.00 | 0.00 | 0.00 | 34 | 1004.3 |
| 20260905160006 | 81 | 174 | 0.0 | 0.0 | 0.00 | 0.00 | 0.00 | 34 | 1004.3 |
| 20260905155500 | 80 | 175 | 0.0 | 0.0 | 0.00 | 0.00 | 0.00 | 37 | 1004.2 |
| 20260905155105 | 80 | 175 | 0.0 | 0.0 | 0.00 | 0.00 | 0.00 | 39 | 1004.4 |
| 20260905154604 | 79 | 174 | 0.0 | 0.0 | 0.00 | 0.00 | 0.00 | 39 | 1004.3 |
| 20260905154056 | 79 | 174 | 0.0 | 0.0 | 0.00 | 0.00 | 0.00 | 40 | 1004.3 |
| 20260905153559 | 79 | 175 | 0.0 | 0.0 | 0.00 | 0.00 | 0.00 | 39 | 1004.3 |
| 20260905153054 | 78 | 175 | 0.0 | 0.0 | 0.00 | 0.00 | 0.00 | 40 | 1004.3 |
| 20260905152553 | 78 | 175 | 0.0 | 0.0 | 0.00 | 0.00 | 0.00 | 40 | 1004.3 |
| 20260905152051 | 77 | 174 | 0.0 | 0.0 | 0.00 | 0.00 | 0.00 | 39 | 1004.4 |
| 20260905151550 | 77 | 175 | 0.0 | 0.0 | 0.00 | 0.00 | 0.00 | 43 | 1004.4 |
| 20260905151048 | 76 | 174 | 0.0 | 0.0 | 0.00 | 0.00 | 0.00 | 41 | 1004.4 |
| 20260905150548 | 76 | 174 | 0.0 | 0.0 | 0.00 | 0.00 | 0.00 | 43 | 1004.5 |
| 20260905150045 | 75 | 174 | 0.0 | 0.0 | 0.00 | 0.00 | 0.00 | 44 | 1004.5 |
| 20260905145544 | 74 | 174 | 0.0 | 0.0 | 0.00 | 0.00 | 0.00 | 42 | 1004.5 |
| 20260905145042 | 73 | 174 | 0.0 | 0.0 | 0.00 | 0.00 | 0.00 | 46 | 1004.5 |
| 20260905144541 | 73 | 174 | 0.0 | 0.0 | 0.00 | 0.00 | 0.00 | 46 | 1004.6 |
| 20260905144038 | 72 | 174 | 0.0 | 0.0 | 0.00 | 0.00 | 0.00 | 52 | 1004.5 |
| 20260905143541 | 71 | 174 | 0.0 | 0.0 | 0.00 | 0.00 | 0.00 | 50 | 1004.6 |
| 20260905143036 | 71 | 174 | 0.0 | 0.0 | 0.00 | 0.00 | 0.00 | 51 | 1004.6 |
| 20260905142537 | 70 | 174 | 0.0 | 0.0 | 0.00 | 0.00 | 0.00 | 54 | 1004.6 |
| 20260905142034 | 69 | 174 | 0.0 | 0.0 | 0.00 | 0.00 | 0.00 | 55 | 1004.6 |
| 20260905141531 | 68 | 174 | 0.0 | 0.0 | 0.00 | 0.00 | 0.00 | 57 | 1004.6 |
| 20260905141034 | 67 | 174 | 0.0 | 0.0 | 0.00 | 0.00 | 0.00 | 59 | 1004.6 |
| 20260905140531 | 67 | 174 | 0.0 | 0.0 | 0.00 | 0.00 | 0.00 | 59 | 1004.6 |
| 20260905140027 | 66 | 175 | 0.0 | 0.0 | 0.00 | 0.00 | 0.00 | 60 | 1004.5 |
| 20260905135525 | 65 | 174 | 0.0 | 0.0 | 0.00 | 0.00 | 0.00 | 63 | 1004.5 |
| 20260905135026 | 64 | 175 | 0.0 | 0.0 | 0.00 | 0.00 | 0.00 | 67 | 1004.4 |
| 20260905134521 | 62 | 175 | 0.0 | 0.0 | 0.00 | 0.00 | 0.00 | 71 | 1004.3 |
| 20260905134020 | 61 | 174 | 0.0 | 0.0 | 0.00 | 0.00 | 0.00 | 75 | 1004.4 |
| 20260905133520 | 60 | 175 | 0.0 | 0.0 | 0.00 | 0.00 | 0.00 | 78 | 1004.4 |
| 20260905133024 | 59 | 175 | 0.0 | 0.0 | 0.00 | 0.00 | 0.00 | 79 | 1004.3 |
| 20260905132516 | 58 | 175 | 0.0 | 0.0 | 0.00 | 0.00 | 0.00 | 80 | 1004.3 |
| 20260905132015 | 58 | 175 | 0.0 | 0.0 | 0.00 | 0.00 | 0.00 | 79 | 1004.4 |
| 20260905131513 | 57 | 175 | 0.0 | 0.0 | 0.00 | 0.00 | 0.00 | 79 | 1004.4 |
| 20260905131012 | 57 | 175 | 0.0 | 0.0 | 0.00 | 0.00 | 0.00 | 78 | 1004.3 |
| 20260905130511 | 57 | 175 | 0.0 | 0.0 | 0.00 | 0.00 | 0.00 | 76 | 1004.1 |
| 20260905130009 | 57 | 175 | 0.0 | 0.0 | 0.00 | 0.00 | 0.00 | 76 | 1004.2 |
| 20260905125508 | 57 | 175 | 0.0 | 0.0 | 0.00 | 0.00 | 0.00 | 75 | 1004.0 |
| 20260905125006 | 57 | 175 | 0.0 | 0.0 | 0.00 | 0.00 | 0.00 | 73 | 1004.0 |
| 20260905124505 | 58 | 175 | 0.0 | 0.0 | 0.00 | 0.00 | 0.00 | 73 | 1003.9 |
| 20260905124002 | 58 | 175 | 0.0 | 0.0 | 0.00 | 0.00 | 0.00 | 71 | 1003.8 |
| 20260905123105 | 59 | 175 | 0.0 | 0.0 | 0.00 | 0.00 | 0.00 | 70 | 1003.7 |
| 20260905122601 | 59 | 175 | 0.0 | 0.0 | 0.00 | 0.00 | 0.00 | 69 | 1003.7 |
| 20260905122103 | 60 | 175 | 0.0 | 0.0 | 0.00 | 0.00 | 0.00 | 69 | 1003.6 |
| 20260905121600 | 60 | 175 | 0.0 | 0.0 | 0.00 | 0.00 | 0.00 | 69 | 1003.5 |
| 20260905121100 | 61 | 175 | 0.0 | 0.0 | 0.00 | 0.00 | 0.00 | 68 | 1003.6 |
| 20260905120555 | 61 | 175 | 0.0 | 0.0 | 0.00 | 0.00 | 0.00 | 66 | 1003.7 |
| 20260905120105 | 62 | 175 | 0.0 | 0.0 | 0.00 | 0.00 | 0.00 | 67 | 1003.3 |
| 20260905115552 | 62 | 175 | 0.0 | 0.0 | 0.00 | 0.00 | 0.00 | 66 | 1003.3 |
| 20260905115051 | 62 | 175 | 0.0 | 0.0 | 0.00 | 0.00 | 0.00 | 66 | 1003.3 |
| 20260905114601 | 63 | 175 | 0.0 | 0.0 | 0.00 | 0.00 | 0.00 | 65 | 1003.2 |
| 20260905114049 | 63 | 175 | 0.0 | 0.0 | 0.00 | 0.00 | 0.00 | 65 | 1003.2 |
| 20260905113548 | 63 | 175 | 0.0 | 0.0 | 0.00 | 0.00 | 0.00 | 64 | 1003.1 |
| 20260905113055 | 63 | 175 | 0.0 | 0.0 | 0.00 | 0.00 | 0.00 | 65 | 1003.1 |
| 20260905112547 | 63 | 175 | 0.0 | 0.0 | 0.00 | 0.00 | 0.00 | 65 | 1003.2 |
| 20260905112047 | 63 | 175 | 0.0 | 0.0 | 0.00 | 0.00 | 0.00 | 65 | 1003.3 |
| 20260905111633 | 64 | 175 | 0.0 | 0.0 | 0.00 | 0.00 | 0.00 | 65 | 1003.4 |
| 20260905111047 | 63 | 175 | 0.0 | 0.0 | 0.00 | 0.00 | 0.00 | 66 | 1003.3 |
| 20260905110545 | 63 | 175 | 0.0 | 0.0 | 0.00 | 0.00 | 0.00 | 65 | 1003.2 |
| 20260905110046 | 63 | 175 | 0.0 | 0.0 | 0.00 | 0.00 | 0.00 | 65 | 1003.2 |
| 20260905105546 | 63 | 175 | 0.0 | 0.0 | 0.00 | 0.00 | 0.00 | 65 | 1003.2 |
| 20260905105045 | 63 | 175 | 0.0 | 0.0 | 0.00 | 0.00 | 0.00 | 65 | 1003.1 |
| 20260905104546 | 64 | 175 | 0.0 | 0.0 | 0.00 | 0.00 | 0.00 | 65 | 1003.0 |
| 20260905104043 | 64 | 175 | 0.0 | 0.0 | 0.00 | 0.00 | 0.00 | 64 | 1003.0 |
| 20260905103544 | 64 | 175 | 0.0 | 0.0 | 0.00 | 0.00 | 0.00 | 64 | 1003.0 |